Location: Unspecified
(0.0000°N, 0.0000°E)
Time: 06:08:46
(UTC+00:00)

Transit 2A - Pass Details

Date: 05 October 2020
Orbit: 593 x 966 km, 66.7° (Epoch: 28 October)

Event Time Altitude Azimuth Distance (km) Brightness Sun altitude
Rises 05:51:15 0° 223° (SW) 3,328 8.9 0.7°
Reaches altitude 10° 05:53:57 10° 235° (SW) 2,456 8.2 1.4°
Maximum altitude 05:58:42 27° 291° (WNW) 1,632 7.2 2.6°
Drops below altitude 10° 06:03:47 10° 347° (NNW) 2,624 8.6 3.8°
Sets 06:06:47 0° 359° (N) 3,600 9.4 4.6°
